Weather History for KSMP - February, 2013

Change the Weather History Date:

Friday, February 8, 2013

  Actual Average (KEAT) Record (KEAT)
Temperature  
Mean Temperature 26 °F 30 °F  
Max Temperature 27 °F 37 °F - ()
Min Temperature 24 °F 23 °F - ()
Degree Days  
Heating Degree Days 40 35  
Month to date heating degree days 280  
Since 1 July heating degree days 4537  
Cooling Degree Days 0 0  
Month to date cooling degree days 0  
Year to date cooling degree days 0  
Moisture  
Dew Point 23 °F    
Average Humidity 89    
Maximum Humidity 96    
Minimum Humidity 86    
Precipitation  
Precipitation 0.00 in 0.06 in - ()
Month to date precipitation 0.43  
Year to date precipitation 2.30  
Snow  
Snow 0.00 in 0.20 in - ()
Month to date snowfall 2.3  
Since 1 July snowfall 42.7  
Snow Depth -    
Sea Level Pressure  
Sea Level Pressure 30.13 in    
Wind  
Wind Speed 5 mph (WSW)    
Max Wind Speed 8 mph    
Max Gust Speed -    
Visibility 5 miles    
Events Fog    
T = Trace of Precipitation, MM = Missing Value Source: NWS Daily Summary

Daily Weather History Graph

Daily Weather History Graph

Search for Another Location

Airport or City:

Trip Planner

Search our weather history database for the weather conditions in past years. The results will help you decide how hot, cold, wet, or windy it might be!

Date:

Astronomy

Feb. 08, 2013 Rise Set
Actual Time 7:20 AM PST 5:18 PM PST
Civil Twilight 6:48 AM PST 5:51 PM PST
Nautical Twilight 6:12 AM PST 6:27 PM PST
Astronomical Twilight 5:37 AM PST 7:02 PM PST
Moon 5:56 AM PST (2/8) 3:56 PM PST (2/8)
Length of Visible Light 11h 02m
Length of Day
9h 58m
Waning Crescent, 3% of the Moon is Illuminated
Feb 8
Waning Crescent
Feb 9
New
Feb 17
First Quarter
Feb 25
Full
Mar 4
Last Quarter

Hourly Weather History & Observations

Time (PST) Temp. Windchill Dew Point Humidity Pressure Visibility Wind Dir Wind Speed Gust Speed Precip Events Conditions
12:56 AM 24.1 °F 18.2 °F 21.9 °F 91% 30.14 in 1.0 mi WSW 4.6 mph - N/A   Mist
1:16 AM 24.8 °F 19.1 °F 21.2 °F 86% 30.04 in 1.8 mi WSW 4.6 mph - N/A   Overcast
1:56 AM 24.1 °F 16.0 °F 21.9 °F 91% 30.15 in 1.2 mi Variable 6.9 mph - N/A   Mostly Cloudy
2:31 AM 24.8 °F 19.1 °F 21.2 °F 86% 30.05 in 1.5 mi Variable 4.6 mph - N/A   Overcast
3:25 AM 24.8 °F 19.1 °F 21.2 °F 86% 30.05 in 0.8 mi Variable 4.6 mph - N/A   Mist
4:15 AM 24.8 °F 17.9 °F 21.2 °F 86% 30.06 in 1.0 mi WSW 5.8 mph - N/A   Mist
6:56 AM 24.1 °F 18.2 °F 21.0 °F 88% 30.20 in 0.5 mi Variable 4.6 mph - N/A Fog Light Freezing Fog
8:56 AM 25.0 °F 18.1 °F 21.9 °F 88% 30.22 in 0.5 mi Variable 5.8 mph - N/A Fog Light Freezing Fog
9:25 AM 24.8 °F 17.9 °F 21.2 °F 86% 30.11 in 1.5 mi Variable 5.8 mph - N/A   Overcast
9:56 AM 25.0 °F 18.1 °F 24.1 °F 96% 30.22 in 9.0 mi Variable 5.8 mph - N/A   Mostly Cloudy
10:27 AM 26.6 °F 20.0 °F 24.8 °F 93% 30.12 in 2.0 mi Variable 5.8 mph - N/A   Mostly Cloudy
11:56 AM 27.0 °F 19.5 °F 25.0 °F 92% 30.22 in 10.0 mi Variable 6.9 mph - N/A   Overcast
12:31 PM 26.6 °F 18.2 °F 24.8 °F 93% 30.11 in 10.0 mi WSW 8.1 mph - N/A   Mostly Cloudy
12:54 PM 26.6 °F 20.0 °F 24.8 °F 93% 30.11 in 10.0 mi Variable 5.8 mph - N/A   Overcast
12:56 PM 27.0 °F 20.5 °F 24.1 °F 89% 30.21 in 10.0 mi Variable 5.8 mph - N/A   Overcast
1:03 PM 26.6 °F 21.2 °F 24.8 °F 93% 30.11 in 10.0 mi Variable 4.6 mph - N/A   Overcast
3:47 PM 26.6 °F 21.2 °F 23.0 °F 86% 30.11 in 10.0 mi Variable 4.6 mph - N/A   Overcast
8:17 PM 24.8 °F 16.1 °F 23.0 °F 93% 30.11 in 6.0 mi West 8.1 mph - N/A   Overcast
9:23 PM 24.8 °F 17.9 °F 23.0 °F 93% 30.12 in 4.0 mi West 5.8 mph - N/A   Overcast
9:32 PM 24.8 °F 19.1 °F 21.2 °F 86% 30.11 in 10.0 mi Variable 4.6 mph - N/A   Overcast
9:49 PM 24.8 °F 17.9 °F 21.2 °F 86% 30.11 in 2.5 mi Variable 5.8 mph - N/A   Overcast
11:23 PM 24.8 °F 17.9 °F 21.2 °F 86% 30.11 in 7.0 mi Variable 5.8 mph - N/A   Overcast